Total_Precipitation_Accumulation
1.70 1.91 2.10 2.32 2.57 2.79 2.94 3.16 3.41 3.78 4.06 4.42 4.73 4.94 5.12 5.33 5.39 5.30 5.24 5.21 5.19 5.31 5.38 5.14 5.12 5.04 4.92 4.70 4.62 4.50 4.28 4.02 4.02 3.90 3.43 2.79 2.39 2.29 2.19 2.25 2.49 2.52 2.40
1.69 2.05 2.36 2.80 3.05 3.19 3.25 3.45 3.77 4.09 4.28 4.66 5.17 5.64 5.82 5.93 5.92 5.88 5.98 6.00 6.00 6.16 6.20 6.17 5.94 5.76 5.49 4.99 4.63 4.50 4.26 3.87 3.99 4.02 3.96 3.23 2.71 2.21 1.78 1.89 1.97 2.07 2.29
1.93 2.19 2.56 2.90 3.04 3.17 3.29 3.45 3.92 4.37 4.82 5.28 5.85 6.32 6.59 6.59 6.44 6.11 6.17 6.28 6.15 6.25 6.43 6.42 6.20 5.88 5.33 4.76 4.60 4.56 4.39 4.09 4.01 3.92 4.10 3.54 2.98 2.52 2.02 1.76 1.67 1.80 1.94
1.89 2.22 2.47 2.76 2.91 3.04 3.28 3.50 3.92 4.61 5.11 5.43 6.05 6.65 6.90 7.10 7.16 6.91 6.58 6.36 6.11 6.00 5.94 5.78 5.38 5.02 4.67 4.37 4.23 4.29 4.17 4.12 3.92 3.83 3.54 3.30 3.01 2.74 2.33 1.89 1.67 1.72 1.77
1.69 2.04 2.21 2.49 2.82 2.95 3.06 3.30 3.86 4.51 5.24 5.82 6.29 6.83 7.25 7.48 7.45 7.01 6.55 6.01 5.64 5.19 4.78 4.46 4.24 4.17 4.00 3.79 3.67 3.68 3.60 3.43 3.32 3.30 3.26 3.20 2.95 2.61 2.40 2.11 1.91 1.88 1.73
1.51 1.67 1.85 2.14 2.50 2.61 2.86 3.16 3.59 4.33 5.06 5.64 6.16 6.62 6.96 7.02 6.73 6.22 5.69 5.35 4.95 4.41 3.89 3.61 3.41 3.28 3.12 2.92 2.82 2.81 2.84 2.93 2.97 3.04 3.03 2.97 2.91 2.71 2.64 2.46 2.22 2.11 1.99
1.39 1.60 1.72 2.01 2.26 2.37 2.66 3.02 3.56 4.20 4.60 5.06 5.54 5.86 6.04 6.12 6.07 5.74 5.28 4.91 4.44 3.98 3.50 3.07 2.84 2.60 2.41 2.31 2.32 2.30 2.28 2.39 2.53 2.64 2.69 2.68 2.61 2.56 2.64 2.74 2.50 2.26 2.11
1.51 1.74 1.88 2.07 2.26 2.35 2.53 2.88 3.32 3.77 4.00 4.19 4.60 4.92 5.03 5.06 4.92 4.66 4.27 3.96 3.64 3.37 3.06 2.63 2.29 2.07 1.92 1.81 1.90 1.91 1.94 2.01 2.12 2.19 2.40 2.40 2.32 2.43 2.54 2.68 2.78 2.65 2.31
1.55 1.76 1.92 2.04 2.19 2.25 2.43 2.61 2.87 3.07 3.29 3.48 3.67 3.84 3.85 3.75 3.62 3.39 3.12 2.90 2.72 2.46 2.32 2.13 1.95 1.82 1.76 1.75 1.76 1.74 1.73 1.83 1.92 1.99 2.15 2.26 2.24 2.30 2.37 2.52 2.64 2.72 2.53
1.57 1.73 1.82 1.90 1.95 1.92 2.04 2.17 2.40 2.53 2.69 2.80 2.82 2.74 2.74 2.68 2.52 2.32 2.22 2.07 1.90 1.79 1.77 1.73 1.72 1.67 1.61 1.68 1.74 1.65 1.63 1.75 1.77 1.76 1.87 1.97 2.02 2.13 2.21 2.34 2.46 2.53 2.49
1.49 1.53 1.57 1.62 1.65 1.62 1.63 1.73 1.90 2.12 2.24 2.24 2.28 2.22 2.13 1.96 1.85 1.72 1.65 1.58 1.51 1.50 1.51 1.53 1.55 1.56 1.55 1.59 1.60 1.53 1.53 1.59 1.74 1.82 1.87 1.90 1.93 2.00 2.00 2.03 2.09 2.22 2.38
1.44 1.36 1.36 1.40 1.42 1.42 1.40 1.46 1.55 1.67 1.72 1.79 1.80 1.78 1.71 1.61 1.52 1.45 1.40 1.42 1.43 1.41 1.43 1.43 1.42 1.48 1.57 1.61 1.55 1.45 1.44 1.53 1.64 1.74 1.83 1.80 1.75 1.80 1.88 1.93 1.92 1.97 2.11
1.50 1.43 1.39 1.34 1.39 1.50 1.50 1.40 1.43 1.45 1.45 1.51 1.51 1.51 1.56 1.51 1.45 1.45 1.48 1.46 1.42 1.40 1.35 1.30 1.34 1.40 1.46 1.47 1.43 1.36 1.35 1.38 1.46 1.53 1.56 1.57 1.59 1.55 1.56 1.63 1.69 1.69 1.71
1.53 1.55 1.60 1.55 1.47 1.49 1.63 1.53 1.43 1.39 1.43 1.42 1.39 1.33 1.32 1.37 1.38 1.37 1.37 1.33 1.29 1.32 1.35 1.32 1.28 1.27 1.20 1.13 1.11 1.11 1.16 1.18 1.18 1.23 1.25 1.29 1.37 1.38 1.41 1.40 1.46 1.51 1.64
1.69 1.66 1.62 1.61 1.53 1.49 1.60 1.56 1.45 1.38 1.56 1.53 1.50 1.41 1.31 1.31 1.35 1.33 1.28 1.21 1.15 1.09 1.14 1.19 1.13 1.02 0.89 0.79 0.81 0.87 0.91 0.99 1.00 1.03 1.01 0.98 1.11 1.21 1.20 1.10 1.23 1.39 1.55
1.90 1.85 1.77 1.75 1.74 1.65 1.65 1.63 1.58 1.53 1.60 1.66 1.74 1.73 1.61 1.55 1.51 1.41 1.28 1.26 1.23 1.16 1.08 1.03 1.00 0.92 0.72 0.72 0.70 0.77 0.90 1.00 0.98 1.01 1.01 0.93 0.96 0.99 0.95 0.91 1.03 1.24 1.31
2.15 2.09 2.01 1.95 1.93 1.89 1.81 1.77 1.72 1.66 1.66 1.71 1.75 1.74 1.69 1.64 1.60 1.42 1.29 1.30 1.30 1.27 1.22 1.09 1.03 1.02 0.94 0.79 0.65 0.68 0.82 0.95 0.97 0.98 0.97 0.85 0.79 0.88 0.89 0.89 0.90 0.97 1.00
2.12 2.12 2.15 2.09 2.06 1.92 1.82 1.75 1.69 1.72 1.77 1.78 1.76 1.70 1.57 1.54 1.47 1.39 1.37 1.34 1.29 1.25 1.18 1.11 1.02 0.94 0.79 0.66 0.57 0.59 0.70 0.86 0.92 0.92 0.93 0.95 0.89 0.82 0.83 0.83 0.87 0.94 0.99
2.19 2.16 2.11 2.02 1.99 1.94 1.83 1.75 1.73 1.74 1.76 1.73 1.64 1.56 1.46 1.43 1.34 1.31 1.26 1.22 1.17 1.15 1.07 0.95 0.91 0.88 0.76 0.56 0.49 0.56 0.72 0.87 0.88 0.84 0.78 0.84 0.87 0.84 0.79 0.83 0.97 1.03 1.06
1.99 1.91 1.75 1.64 1.77 1.86 1.81 1.74 1.69 1.67 1.66 1.48 1.29 1.22 1.24 1.25 1.17 1.11 1.07 1.05 1.05 1.03 0.94 0.82 0.84 0.84 0.81 0.67 0.57 0.59 0.69 0.84 0.83 0.83 0.79 0.74 0.74 0.76 0.77 0.85 0.98 1.05 1.04
1.52 1.46 1.41 1.46 1.55 1.61 1.60 1.61 1.54 1.52 1.43 1.31 1.23 1.19 1.13 1.08 1.05 1.04 1.05 1.01 0.96 1.00 0.99 0.95 0.88 0.80 0.71 0.59 0.52 0.53 0.55 0.68 0.75 0.77 0.82 0.77 0.69 0.66 0.70 0.82 0.87 0.92 0.91
1.17 1.13 1.20 1.29 1.34 1.28 1.28 1.38 1.40 1.32 1.23 1.24 1.20 1.23 1.14 0.97 0.98 1.11 1.06 1.04 1.07 1.09 1.03 0.97 0.88 0.75 0.64 0.51 0.45 0.46 0.49 0.55 0.69 0.78 0.79 0.73 0.67 0.64 0.68 0.75 0.81 0.81 0.91
0.95 0.98 1.00 1.06 1.17 1.19 1.20 1.26 1.25 1.15 1.15 1.23 1.21 1.12 1.03 1.09 1.08 1.11 1.07 1.03 1.02 0.96 0.87 0.83 0.80 0.70 0.61 0.51 0.42 0.45 0.50 0.57 0.62 0.68 0.67 0.61 0.62 0.65 0.79 0.82 0.83 0.92 1.13
0.81 0.90 0.94 0.94 1.01 1.02 1.04 1.11 1.05 1.05 1.20 1.31 1.26 1.12 1.01 0.98 1.00 1.02 0.96 0.89 0.88 0.85 0.79 0.75 0.73 0.67 0.64 0.56 0.52 0.52 0.52 0.54 0.60 0.64 0.64 0.68 0.72 0.76 0.87 1.00 1.10 1.13 1.19
0.83 0.89 0.94 0.95 0.89 0.86 0.89 0.87 0.89 1.02 1.25 1.23 1.11 0.99 0.85 0.79 0.82 0.80 0.75 0.71 0.68 0.66 0.65 0.61 0.60 0.64 0.63 0.54 0.51 0.49 0.48 0.50 0.53 0.56 0.72 0.92 0.97 1.05 1.12 1.16 1.21 1.25 1.18
0.76 0.88 0.86 0.82 0.83 0.87 0.89 0.83 0.81 0.91 1.11 1.12 0.93 0.79 0.69 0.62 0.55 0.55 0.57 0.51 0.48 0.46 0.44 0.45 0.45 0.46 0.46 0.42 0.40 0.41 0.42 0.45 0.51 0.57 0.80 0.93 0.99 1.07 1.09 1.10 1.13 1.18 1.20